| time (UTC) | temp C | wind direction | speed KPH | gust KPH | rain 1hr cm | rain 24hr cm | rain mn cm | humidity % | barometer mb |
| 20260509160749 | 13 | 302 | 1.6 | 6.4 | 0.00 | 0.00 | 0.00 | 77 | 1018.0 |
| 20260509153729 | 14 | 292 | 1.6 | 4.8 | 0.00 | 0.00 | 0.00 | 77 | 1018.1 |
| 20260509150731 | 15 | 328 | 3.2 | 4.8 | 0.00 | 0.00 | 0.00 | 75 | 1017.9 |
| 20260509143731 | 14 | 285 | 0.0 | 3.2 | 0.00 | 0.00 | 0.00 | 78 | 1017.8 |
| 20260509140809 | 15 | 285 | 0.0 | 1.6 | 0.00 | 0.00 | 0.00 | 77 | 1017.6 |
| 20260509133729 | 15 | 285 | 1.6 | 4.8 | 0.00 | 0.00 | 0.00 | 77 | 1017.4 |
| 20260509130751 | 16 | 285 | 0.0 | 1.6 | 0.00 | 0.00 | 0.00 | 74 | 1017.2 |
| 20260509123731 | 16 | 285 | 0.0 | 3.2 | 0.00 | 0.00 | 0.00 | 71 | 1016.8 |
| 20260509120732 | 18 | 306 | 3.2 | 6.4 | 0.00 | 0.00 | 0.00 | 67 | 1016.6 |
| 20260509113733 | 18 | 23 | 3.2 | 9.7 | 0.00 | 0.00 | 0.00 | 68 | 1016.5 |
| 20260509110730 | 18 | 23 | 3.2 | 8.0 | 0.00 | 0.00 | 0.00 | 74 | 1016.4 |
| 20260509103730 | 18 | 51 | 4.8 | 14.5 | 0.00 | 0.00 | 0.00 | 81 | 1015.5 |
| 20260509100751 | 18 | 343 | 8.0 | 14.5 | 0.00 | 0.00 | 0.00 | 82 | 1015.0 |
| 20260509093751 | 19 | 316 | 6.4 | 16.1 | 0.00 | 0.00 | 0.00 | 77 | 1014.3 |
| 20260509090750 | 20 | 304 | 6.4 | 12.9 | 0.00 | 0.00 | 0.00 | 70 | 1013.7 |
| 20260509083750 | 21 | 243 | 3.2 | 17.7 | 0.00 | 0.00 | 0.00 | 65 | 1013.1 |
| 20260509080751 | 23 | 231 | 6.4 | 14.5 | 0.00 | 0.00 | 0.00 | 47 | 1012.5 |
| 20260509073808 | 24 | 263 | 6.4 | 14.5 | 0.00 | 0.00 | 0.00 | 34 | 1012.2 |
| 20260509070748 | 25 | 265 | 9.7 | 17.7 | 0.00 | 0.00 | 0.00 | 34 | 1011.9 |
| 20260509063729 | 25 | 258 | 6.4 | 19.3 | 0.00 | 0.00 | 0.00 | 35 | 1011.5 |
| 20260509060730 | 25 | 250 | 12.9 | 20.9 | 0.00 | 0.00 | 0.00 | 35 | 1010.9 |
| 20260509053731 | 23 | 113 | 9.7 | 24.1 | 0.00 | 0.00 | 0.00 | 51 | 1011.2 |
| 20260509050752 | 23 | 170 | 9.7 | 22.5 | 0.00 | 0.00 | 0.00 | 51 | 1011.4 |
| 20260509043746 | 23 | 136 | 8.0 | 14.5 | 0.00 | 0.00 | 0.00 | 47 | 1011.9 |
| 20260509040746 | 23 | 231 | 9.7 | 17.7 | 0.00 | 0.00 | 0.00 | 47 | 1012.1 |
| 20260509033748 | 22 | 120 | 8.0 | 14.5 | 0.00 | 0.00 | 0.00 | 45 | 1012.2 |
| 20260509030748 | 22 | 163 | 9.7 | 14.5 | 0.00 | 0.00 | 0.00 | 43 | 1012.3 |
| 20260509023751 | 23 | 277 | 6.4 | 12.9 | 0.00 | 0.00 | 0.00 | 42 | 1012.2 |
| 20260509020730 | 22 | 263 | 8.0 | 19.3 | 0.00 | 0.00 | 0.00 | 45 | 1012.2 |
| 20260509013731 | 22 | 273 | 8.0 | 17.7 | 0.00 | 0.00 | 0.00 | 46 | 1012.5 |
| 20260509010748 | 21 | 156 | 6.4 | 22.5 | 0.00 | 0.00 | 0.00 | 49 | 1012.2 |
| 20260509003729 | 20 | 283 | 11.3 | 24.1 | 0.00 | 0.00 | 0.00 | 51 | 1011.8 |
| 20260509000730 | 20 | 265 | 8.0 | 25.7 | 0.00 | 0.00 | 0.00 | 51 | 1011.4 |
| 20260508233730 | 20 | 256 | 11.3 | 24.1 | 0.00 | 0.00 | 0.00 | 51 | 1011.0 |
| 20260508230731 | 18 | 239 | 11.3 | 25.7 | 0.00 | 0.00 | 0.00 | 53 | 1010.9 |
| 20260508223732 | 17 | 272 | 8.0 | 19.3 | 0.00 | 0.00 | 0.00 | 55 | 1010.9 |
| 20260508220738 | 16 | 275 | 6.4 | 20.9 | 0.00 | 0.00 | 0.00 | 57 | 1010.9 |
| 20260508213738 | 16 | 250 | 6.4 | 17.7 | 0.00 | 0.00 | 0.00 | 57 | 1010.8 |
| 20260508210738 | 15 | 259 | 4.8 | 20.9 | 0.00 | 0.00 | 0.00 | 59 | 1010.5 |
| 20260508203738 | 15 | 264 | 11.3 | 29.0 | 0.00 | 0.00 | 0.00 | 57 | 1010.2 |
| 20260508200739 | 15 | 233 | 6.4 | 20.9 | 0.00 | 0.00 | 0.00 | 57 | 1009.8 |
| 20260508193740 | 16 | 276 | 6.4 | 25.7 | 0.00 | 0.00 | 0.00 | 54 | 1009.4 |
| 20260508190736 | 16 | 240 | 11.3 | 33.8 | 0.00 | 0.00 | 0.00 | 52 | 1008.5 |
| 20260508183737 | 16 | 268 | 19.3 | 35.4 | 0.00 | 0.00 | 0.00 | 51 | 1008.0 |
| 20260508180738 | 16 | 54 | 19.3 | 32.2 | 0.00 | 0.00 | 0.00 | 48 | 1007.7 |
| 20260508173738 | 16 | 281 | 14.5 | 40.2 | 0.00 | 0.00 | 0.00 | 46 | 1007.7 |
| 20260508170740 | 16 | 268 | 12.9 | 37.0 | 0.00 | 0.00 | 0.00 | 43 | 1007.6 |
| 20260508163740 | 16 | 220 | 12.9 | 35.4 | 0.00 | 0.00 | 0.00 | 39 | 1007.7 |